Regional Weather Roundup
Issued by NWS

Home | Current Version | Previous Version | Text Only | Print | Product List | Glossary On
Versions: 1 2 3 4 5 6 7 8 9 10 11 12 13 14 15 16 17 18 19 20 21 22 23 24 25 26 27 28 29 30 31 32 33 34 35 36 37 38 39 40 41 42 43 44 45 46 47 48 49 50
000
ASUS43 KFSD 241910
RWRSD

WEATHER ROUNDUP FOR SOUTH DAKOTA
NATIONAL WEATHER SERVICE SIOUX FALLS SD
200 PM CDT MON JUL 24 2017

NOTE: "FAIR" INDICATES FEW OR NO CLOUDS BELOW 12,000 FEET WITH NO
SIGNIFICANT WEATHER AND/OR OBSTRUCTIONS TO VISIBILITY.


SDZ001>005-009-010-012>017-242000-
NORTHWEST AND NORTH CENTRAL SOUTH DAKOTA

CITY           SKY/WX    TMP DP  RH WIND       PRES   REMARKS
BUFFALO          N/A     91  57  31 SW7       29.79R
FAITH            N/A     89  58  34 E12G20    29.83F
MOBRIDGE       MOSUNNY   81  67  62 E10       29.85R
$$

SDZ012>016-024>037-041>051-057-063-072>074-242000-
SOUTHWEST AND SOUTH CENTRAL SOUTH DAKOTA

CITY           SKY/WX    TMP DP  RH WIND       PRES   REMARKS
RAPID CTY ARPT SUNNY     95  53  24 CALM      29.85S
PIERRE         SUNNY     94  59  31 SE17G25   29.78F
CUSTER         SUNNY     91  31  11 W12G21    30.03S
ELLSWORTH AFB  SUNNY     93  53  25 N8G17     29.85S
PHILIP         SUNNY     98  62  30 MISG      29.75F HX  99
PINE RIDGE     SUNNY    100  44  14 W14G21    29.85F HX  96
SPEARFISH      LGT RAIN  91  50  24 W6        29.90F
WINNER         FAIR      98  62  30 S22G28    29.83F HX  99
$$

SDZ004>011-016>023-039-040-242000-
NORTHEAST SOUTH DAKOTA

CITY           SKY/WX    TMP DP  RH WIND       PRES   REMARKS
ABERDEEN       CLOUDY    77  65  66 SE15      29.89F
WATERTOWN      SUNNY     78  64  61 S12G18    29.98R
BROOKINGS      SUNNY     78  63  59 SE17G24   29.98S
SISSETON         N/A     80  62  54 S13       29.94F
$$

SDZ017-020-022-023-036>040-048>070-242000-
SOUTHEAST SOUTH DAKOTA

CITY           SKY/WX    TMP DP  RH WIND       PRES   REMARKS
SIOUX FALLS    MOSUNNY   80  65  59 S10       29.97F
HURON          MOSUNNY   83  65  54 SE13      29.91S
CHAMBERLAIN    MOSUNNY   91  66  43 SE17      29.86S
MITCHELL       SUNNY     85  64  49 SE16G26   29.91F
YANKTON        SUNNY     84  65  52 SE14G23   29.94F
$$

ABBREVIATIONS USED IN REMARKS
   TC - TEMPERATURE IN CELSIUS
  WCI - WIND CHILL INDEX
   HX - HEAT INDEX
  VSB - VISIBILITY





USA.gov is the U.S. government's official web portal to all federal, state and local government web resources and services.